FW8987 Weather Reports


time (UTC)temp
F
wind
direction
speed
knots
gust
knots
rain 1hr
in
rain 24hr
in
rain mn
in
humidity
%
barometer
mb
20260506224018 42 203 0.9 1.7 0.00 0.00 0.00 62 1013.2
20260506223034 42 230 1.7 5.2 0.00 0.00 0.00 63 1013.2
20260506222029 41 223 0.9 2.6 0.00 0.00 0.00 63 1012.8
20260506221025 41 187 0.0 0.9 0.00 0.00 0.00 63 1012.5
20260506220040 42 183 0.9 2.6 0.00 0.00 0.00 62 1012.5
20260506215035 42 183 0.0 0.9 0.00 0.00 0.00 60 1012.6
20260506214031 42 209 0.9 1.7 0.00 0.00 0.00 60 1012.5
20260506213048 43 177 0.9 1.7 0.00 0.00 0.00 59 1012.5
20260506212021 42 211 0.0 0.9 0.00 0.00 0.00 61 1012.3
20260506211017 42 0.0 0.0 0.00 0.00 0.00 62 1012.2
20260506210033 42 188 0.0 0.9 0.00 0.00 0.00 64 1012.3
20260506205028 43 182 0.0 0.9 0.00 0.00 0.00 61 1012.2
20260506204023 43 217 0.9 0.9 0.00 0.00 0.00 60 1012.0
20260506203019 41 203 0.0 0.9 0.00 0.00 0.00 68 1012.1
20260506202034 42 169 0.9 1.7 0.00 0.00 0.00 65 1012.1
20260506201030 43 190 0.9 1.7 0.00 0.00 0.00 62 1012.3
20260506200025 43 224 0.9 1.7 0.00 0.00 0.00 65 1012.1
20260506195039 43 205 0.0 0.9 0.00 0.00 0.00 64 1012.2
20260506194015 43 0.0 0.0 0.00 0.00 0.00 63 1012.0
20260506193031 44 0.0 0.0 0.00 0.00 0.00 62 1012.2
20260506192026 45 177 0.0 0.9 0.00 0.00 0.00 60 1012.3
20260506191021 45 179 0.0 0.9 0.00 0.00 0.00 62 1012.3
20260506190017 46 127 0.9 2.6 0.00 0.00 0.00 60 1012.2
20260506185032 46 186 0.0 1.7 0.00 0.00 0.00 61 1012.2
20260506184028 46 169 0.0 1.7 0.00 0.00 0.00 58 1012.1
20260506183023 46 164 0.0 1.7 0.00 0.00 0.00 60 1012.1
20260506182018 47 143 0.9 1.7 0.00 0.00 0.00 60 1012.1
20260506181034 47 176 0.0 0.9 0.00 0.00 0.00 59 1011.9
20260506180050 47 155 0.9 2.6 0.00 0.00 0.00 59 1011.9
20260506175025 47 133 0.9 3.5 0.00 0.00 0.00 58 1012.0
20260506174039 48 151 0.9 2.6 0.00 0.00 0.00 57 1012.0
20260506173035 48 156 1.7 3.5 0.00 0.00 0.00 57 1011.9
20260506172029 48 131 1.7 3.5 0.00 0.00 0.00 56 1012.0
20260506171145 48 100 1.7 3.5 0.00 0.00 0.00 55 1011.9
20260506170019 49 156 1.7 3.5 0.00 0.00 0.00 54 1011.9
20260506165036 50 150 1.7 2.6 0.00 0.00 0.00 53 1012.0
20260506164030 52 172 0.9 1.7 0.00 0.00 0.00 44 1011.9
20260506163026 52 220 1.7 6.1 0.00 0.00 0.00 37 1012.0
20260506162042 52 192 2.6 7.0 0.00 0.00 0.00 36 1011.9
20260506161017 52 185 1.7 5.2 0.00 0.00 0.00 40 1011.9
20260506160033 51 178 1.7 3.5 0.00 0.00 0.00 47 1012.0
20260506155048 51 155 0.9 2.6 0.00 0.00 0.00 46 1012.0
20260506154043 51 100 4.3 8.7 0.00 0.00 0.00 46 1012.0
20260506153018 51 144 2.6 7.0 0.00 0.00 0.00 46 1012.1
20260506152053 51 137 1.7 6.1 0.00 0.00 0.00 45 1012.2
20260506151028 52 126 2.6 5.2 0.00 0.00 0.00 44 1012.1
20260506150023 54 199 0.9 2.6 0.00 0.00 0.00 33 1012.3
20260506145018 55 210 2.6 5.2 0.00 0.00 0.00 32 1012.3
20260506144034 55 213 1.7 6.1 0.00 0.00 0.00 33 1012.4
20260506143029 55 187 1.7 3.5 0.00 0.00 0.00 33 1012.4
20260506142024 53 215 2.6 3.5 0.00 0.00 0.00 34 1012.6
20260506141020 53 232 3.5 7.0 0.00 0.00 0.00 34 1012.7
20260506140015 53 255 5.2 9.6 0.00 0.00 0.00 35 1012.8
20260506135030 53 239 4.3 7.8 0.00 0.00 0.00 34 1012.8
20260506134026 53 213 2.6 3.5 0.00 0.00 0.00 35 1012.8
20260506133021 55 206 3.5 7.8 0.00 0.00 0.00 33 1012.8
20260506132017 53 197 2.6 6.1 0.00 0.00 0.00 34 1013.0
20260506131032 55 207 2.6 7.8 0.00 0.00 0.00 33 1013.1
20260506130047 53 254 3.5 7.0 0.00 0.00 0.00 32 1012.9
20260506125022 52 241 3.5 6.1 0.00 0.00 0.00 32 1013.0
20260506124017 54 242 3.5 7.0 0.00 0.00 0.00 31 1013.0
20260506123032 53 253 4.3 8.7 0.00 0.00 0.00 32 1013.0
20260506122028 52 248 5.2 9.6 0.00 0.00 0.00 32 1012.8
20260506121024 54 230 3.5 7.8 0.00 0.00 0.00 31 1012.8
20260506120018 51 250 2.6 7.8 0.00 0.00 0.00 32 1013.0
20260506115034 52 252 3.5 7.0 0.00 0.00 0.00 31 1013.0
20260506114029 50 231 0.9 3.5 0.00 0.00 0.00 31 1013.1
20260506113024 50 244 2.6 7.0 0.00 0.00 0.00 32 1013.2
20260506112019 52 252 5.2 8.7 0.00 0.00 0.00 32 1013.2
20260506111035 51 252 3.5 6.1 0.00 0.00 0.00 33 1013.2
20260506110031 51 239 2.6 7.8 0.00 0.00 0.00 32 1013.3
20260506105045 51 252 4.3 7.0 0.00 0.00 0.00 35 1013.3
20260506104020 49 254 4.3 7.0 0.00 0.00 0.00 35 1013.4
20260506103016 50 233 3.5 7.0 0.00 0.00 0.00 34 1013.4
20260506102031 51 260 3.5 7.0 0.00 0.00 0.00 34 1013.4
20260506101026 48 258 4.3 7.8 0.00 0.00 0.00 35 1013.6
20260506100022 49 217 2.6 5.2 0.00 0.00 0.00 33 1013.5
20260506095038 48 242 2.6 6.1 0.00 0.00 0.00 34 1013.6
20260506094053 50 215 1.7 3.5 0.00 0.00 0.00 35 1013.6
20260506093109 50 244 2.6 6.1 0.00 0.00 0.00 35 1013.6
20260506092024 48 206 0.9 2.6 0.00 0.00 0.00 38 1013.8
20260506091018 50 252 4.3 7.0 0.00 0.00 0.00 38 1013.7
20260506090034 50 168 0.9 2.6 0.00 0.00 0.00 37 1013.6
20260506085030 50 170 1.7 6.1 0.00 0.00 0.00 37 1013.8
20260506084025 49 214 2.6 6.1 0.00 0.00 0.00 36 1013.9
20260506083039 49 237 1.7 5.2 0.00 0.00 0.00 38 1014.0
20260506082041 49 166 1.7 5.2 0.00 0.00 0.00 38 1014.0
20260506081031 49 148 0.9 3.5 0.00 0.00 0.00 41 1013.9
20260506073032 46 218 1.7 3.5 0.00 0.00 0.00 44 1014.1
20260506072028 46 242 1.7 2.6 0.00 0.00 0.00 44 1014.0
20260506071022 47 190 0.9 2.6 0.00 0.00 0.00 43 1014.0
20260506062019 42 237 1.7 2.6 0.00 0.00 0.00 54 1013.9
20260506061034 41 225 2.6 3.5 0.00 0.00 0.00 59 1013.8
20260506051026 36 227 1.7 2.6 0.00 0.00 0.00 73 1013.6
20260506045037 34 229 0.9 1.7 0.00 0.01 0.00 76 1013.5
20260506044032 32 197 0.0 0.9 0.00 0.01 0.00 82 1013.6
20260506043028 31 0.0 0.0 0.00 0.01 0.00 83 1013.5
20260506042022 31 0.0 0.0 0.00 0.01 0.00 83 1013.5
20260506041018 31 184 0.0 0.9 0.00 0.01 0.00 85 1013.4
20260506040034 29 0.0 0.0 0.00 0.01 0.00 91 1013.3
20260506035029 27 0.0 0.0 0.00 0.01 0.00 93 1013.3
20260506034044 26 0.0 0.0 0.00 0.01 0.00 93 1013.2
20260506033019 26 0.0 0.0 0.00 0.01 0.00 92 1013.1
20260506032035 26 171 0.0 0.9 0.00 0.01 0.00 94 1012.9
20260506031030 25 0.0 0.0 0.00 0.01 0.00 93 1012.8
20260506030026 26 0.0 0.0 0.00 0.01 0.00 92 1012.8
20260506025041 27 0.0 0.0 0.00 0.01 0.00 91 1012.7
20260506024017 27 169 0.9 0.9 0.00 0.01 0.00 90 1012.8
20260506023032 28 0.0 0.0 0.00 0.01 0.00 90 1012.7
20260506022027 28 0.0 0.0 0.00 0.01 0.00 89 1012.7
20260506021022 28 0.0 0.0 0.00 0.01 0.00 87 1012.4
20260506020058 29 0.0 0.0 0.00 0.01 0.00 86 1012.5
20260506015033 30 175 0.0 0.9 0.00 0.01 0.00 84 1012.4
20260506014029 30 215 0.9 1.7 0.00 0.01 0.00 82 1012.2
20260506013043 30 222 0.0 1.7 0.00 0.01 0.00 83 1012.1
20260506012039 30 208 0.0 1.7 0.00 0.01 0.00 83 1012.1
20260506011115 31 195 0.0 1.7 0.00 0.01 0.00 80 1012.1
20260506010049 33 223 0.9 1.7 0.00 0.01 0.00 77 1012.0
20260506005025 33 249 1.7 3.5 0.00 0.01 0.00 75 1011.9
20260506004020 33 232 0.9 2.6 0.00 0.01 0.00 76 1011.8
20260506003056 33 232 1.7 2.6 0.00 0.01 0.00 76 1011.7
20260506002031 33 226 1.7 2.6 0.00 0.01 0.00 77 1011.4
20260506001027 33 226 0.9 1.7 0.00 0.01 0.00 77 1011.5
20260506000022 33 211 0.0 0.9 0.00 0.01 0.00 78 1011.4
20260505235018 33 213 0.0 0.9 0.00 0.02 0.00 78 1011.2
20260505234033 34 219 0.9 1.7 0.00 0.03 0.00 77 1011.3
20260505233048 34 244 1.7 2.6 0.00 0.04 0.00 77 1011.1
20260505232024 34 228 0.9 2.6 0.00 0.06 0.00 76 1011.2
20260505231040 34 219 0.9 1.7 0.00 0.07 0.00 75 1011.0
20260505230035 34 215 0.9 2.6 0.00 0.11 0.00 76 1011.0
20260505225030 34 236 1.7 2.6 0.00 0.15 0.00 75 1011.1